User: anonymous   Login
Location: Unspecified
(0.0000°N, 0.0000°E)
Time: 09:17:38
(UTC+00:00)
Language:

STARS-C - Orbit

View from above orbital plane
View from above orbital plane
View from above satellite
View from above satellite

Ground track
Ground track

The orbit data is extracted from the following two-line orbital elements,

1 41895U 98067KR  17268.51505514  .00056390  00000-0  49605-3 0  9997
2 41895  51.6353 245.8812 0004022  17.4164 342.6970 15.68202794 43690
Epoch (UTC): 25 September 2017 12:21:40
Eccentricity: 0.0004022
inclination: 51.6353°
perigee height: 361 km
apogee height: 367 km
right ascension of ascending node: 245.8812°
argument of perigee: 17.4164°
revolutions per day: 15.68202794
mean anomaly at epoch: 342.6970°
orbit number at epoch: 4369

The dashed part of the orbit path shows where the satellite is in the earth's shadow,  

DLR